FW7008 Weather Reports


time (UTC)temp
F
wind
direction
speed
knots
gust
knots
rain 1hr
in
rain 24hr
in
rain mn
in
humidity
%
barometer
mb
20260506201109 71 216 2.6 6.1 0.00 0.00 0.00 64 1018.3
20260506200606 70 215 0.0 0.0 0.00 0.00 0.00 68 1018.3
20260506195559 71 148 0.0 0.0 0.00 0.00 0.00 68 1018.6
20260506195056 71 190 5.2 6.1 0.00 0.00 0.00 68 1018.6
20260506194554 70 266 6.1 7.8 0.00 0.00 0.00 70 1018.3
20260506194049 70 267 9.6 12.2 0.00 0.00 0.00 70 1018.3
20260506193547 70 252 4.3 6.1 0.00 0.00 0.00 69 1018.6
20260506193044 70 235 1.7 7.0 0.00 0.00 0.00 69 1018.3
20260506192541 69 211 6.1 7.0 0.00 0.00 0.00 69 1018.6
20260506192037 69 229 7.0 9.6 0.00 0.00 0.00 72 1018.6
20260506191534 69 279 4.3 5.2 0.00 0.00 0.00 71 1019.0
20260506191029 69 259 6.1 8.7 0.00 0.00 0.00 71 1019.0
20260506190527 70 257 5.2 7.0 0.00 0.00 0.00 70 1019.0
20260506190024 70 185 3.5 4.3 0.00 0.00 0.00 68 1018.6
20260506185521 69 237 4.3 6.1 0.00 0.00 0.00 68 1019.0
20260506185017 68 244 0.0 0.0 0.00 0.00 0.00 70 1019.0
20260506184515 69 198 4.3 6.1 0.00 0.00 0.00 69 1019.0
20260506184012 70 161 2.6 2.6 0.00 0.00 0.00 68 1019.0
20260506183507 68 263 3.5 5.2 0.00 0.00 0.00 71 1019.0
20260506183005 68 289 4.3 6.1 0.00 0.00 0.00 72 1019.3
20260506182501 69 164 3.5 4.3 0.00 0.00 0.00 70 1019.0
20260506181959 68 159 0.0 0.0 0.00 0.00 0.00 72 1019.0
20260506181457 68 272 0.0 0.0 0.00 0.00 0.00 71 1019.3
20260506180948 69 240 5.2 6.1 0.00 0.00 0.00 71 1019.3
20260506180444 68 181 0.0 0.0 0.00 0.00 0.00 72 1019.3
20260506175941 69 77 0.0 0.0 0.00 0.00 0.00 68 1019.3
20260506175438 69 218 0.0 0.0 0.00 0.00 0.00 71 1019.3
20260506174934 69 219 0.0 0.0 0.00 0.00 0.00 68 1019.3
20260506174432 70 181 0.0 0.0 0.00 0.00 0.00 66 1019.3
20260506173929 71 172 0.0 0.0 0.00 0.00 0.00 64 1019.3
20260506173426 69 48 0.0 0.0 0.00 0.00 0.00 67 1019.3
20260506172923 68 25 0.0 0.0 0.00 0.00 0.00 68 1019.3
20260506172420 67 264 0.0 0.0 0.00 0.00 0.00 70 1019.0
20260506171917 66 153 0.0 0.0 0.00 0.00 0.00 71 1019.3
20260506171414 67 111 0.0 0.0 0.00 0.00 0.00 72 1019.3
20260506170912 68 65 0.0 0.0 0.00 0.00 0.00 69 1019.3
20260506170408 69 102 0.0 0.0 0.00 0.00 0.00 69 1019.3
20260506165907 67 115 0.0 0.0 0.00 0.00 0.00 72 1019.0
20260506165405 67 116 0.0 0.0 0.00 0.00 0.00 71 1019.3
20260506164901 67 118 0.0 0.0 0.00 0.00 0.00 71 1019.3
20260506164357 67 146 0.0 0.0 0.00 0.00 0.00 72 1019.3
20260506163855 65 110 0.0 0.0 0.00 0.00 0.00 75 1019.3
20260506163349 65 108 0.0 0.0 0.00 0.00 0.00 74 1019.3
20260506162845 66 107 0.0 0.0 0.00 0.00 0.00 73 1019.3
20260506162343 66 104 0.0 0.0 0.00 0.00 0.00 73 1019.3
20260506161840 66 103 0.0 0.0 0.00 0.00 0.00 72 1019.0
20260506161338 64 105 0.0 0.0 0.00 0.00 0.00 74 1019.0
20260506160835 64 101 0.0 0.0 0.00 0.00 0.00 78 1019.0
20260506160332 64 110 0.0 0.0 0.00 0.00 0.00 79 1019.0
20260506155830 64 111 0.0 0.0 0.00 0.00 0.00 80 1019.3
20260506155326 65 116 0.0 0.0 0.00 0.00 0.00 80 1019.0
20260506153439 64 132 0.0 0.0 0.00 0.00 0.00 81 1019.3
20260506152936 63 115 0.0 0.0 0.00 0.00 0.00 83 1019.3
20260506152433 62 118 0.0 0.0 0.00 0.00 0.00 85 1019.3
20260506151932 62 114 0.0 0.0 0.00 0.00 0.00 84 1019.3
20260506151428 63 116 0.0 0.0 0.00 0.00 0.00 84 1019.3
20260506150926 63 120 0.0 0.0 0.00 0.00 0.00 83 1019.3
20260506150422 63 122 0.0 0.0 0.00 0.00 0.00 85 1019.3
20260506145919 62 124 0.0 0.0 0.00 0.00 0.00 84 1019.3
20260506145415 62 125 0.0 0.0 0.00 0.00 0.00 84 1019.3
20260506144913 62 123 0.0 0.0 0.00 0.00 0.00 84 1019.3
20260506144409 61 122 0.0 0.0 0.00 0.00 0.00 86 1019.3
20260506143908 61 121 0.0 0.0 0.00 0.00 0.00 85 1019.3
20260506143404 61 121 0.0 0.0 0.00 0.00 0.00 86 1019.3
20260506142902 60 122 0.0 0.0 0.00 0.00 0.00 86 1019.3
20260506142400 61 117 0.0 0.0 0.00 0.00 0.00 85 1019.0
20260506141858 59 129 0.0 0.0 0.00 0.00 0.00 89 1019.3
20260506141356 58 130 0.0 0.0 0.00 0.00 0.00 90 1019.0
20260506140854 57 129 0.0 0.0 0.00 0.00 0.00 91 1019.0
20260506140350 57 129 0.0 0.0 0.00 0.00 0.00 92 1019.0
20260506135848 57 128 0.0 0.0 0.00 0.00 0.00 93 1019.3
20260506135344 56 128 0.0 0.0 0.00 0.00 0.00 94 1019.0
20260506134840 55 129 0.0 0.0 0.00 0.00 0.00 95 1019.0
20260506134337 55 132 0.0 0.0 0.00 0.00 0.00 97 1019.0
20260506133834 54 132 0.0 0.0 0.00 0.00 0.00 97 1019.0
20260506133331 54 132 0.0 0.0 0.00 0.00 0.00 97 1019.0
20260506132827 52 132 0.0 0.0 0.00 0.00 0.00 97 1019.0
20260506132325 53 132 0.0 0.0 0.00 0.00 0.00 97 1018.6
20260506131823 53 132 0.0 0.0 0.00 0.00 0.00 97 1018.6
20260506131319 52 132 0.0 0.0 0.00 0.00 0.00 96 1018.3
20260506130816 53 132 0.0 0.0 0.00 0.00 0.00 96 1018.6
20260506130312 53 132 0.0 0.0 0.00 0.00 0.00 96 1018.3
20260506125810 53 132 0.0 0.0 0.00 0.00 0.00 97 1018.3
20260506125308 53 132 0.0 0.0 0.00 0.00 0.00 97 1018.3
20260506124807 53 132 0.0 0.0 0.00 0.00 0.00 96 1018.3
20260506124303 53 132 0.0 0.0 0.00 0.00 0.00 96 1018.3
20260506123801 53 132 0.0 0.0 0.00 0.00 0.00 96 1018.3
20260506123259 53 132 0.0 0.0 0.00 0.00 0.00 96 1018.3
20260506122756 54 132 0.0 0.0 0.00 0.00 0.00 96 1017.9
20260506122253 53 132 0.0 0.0 0.00 0.00 0.00 95 1017.9
20260506121751 54 132 0.0 0.0 0.00 0.00 0.00 96 1017.9
20260506121248 53 132 0.0 0.0 0.00 0.00 0.00 96 1018.3
20260506120745 53 132 0.0 0.0 0.00 0.00 0.00 96 1018.3
20260506120243 53 133 0.0 0.0 0.00 0.00 0.00 96 1017.9
20260506115740 53 135 0.0 0.0 0.00 0.00 0.00 96 1017.9
20260506115238 53 135 0.0 0.0 0.00 0.00 0.00 96 1017.9
20260506114736 53 135 0.0 0.0 0.00 0.00 0.00 96 1018.3
20260506114233 53 135 0.0 0.0 0.00 0.00 0.00 96 1017.9
20260506113731 53 135 0.0 0.0 0.00 0.00 0.00 96 1018.3
20260506113229 53 135 0.0 0.0 0.00 0.00 0.00 96 1017.9
20260506112725 53 135 0.0 0.0 0.00 0.00 0.00 95 1017.9
20260506112223 53 135 0.0 0.0 0.00 0.00 0.00 95 1017.9
20260506111720 53 135 0.0 0.0 0.00 0.00 0.00 95 1018.3
20260506111218 53 135 0.0 0.0 0.00 0.00 0.00 95 1017.9
20260506110714 53 135 0.0 0.0 0.00 0.00 0.00 95 1017.6
20260506110212 54 135 0.0 0.0 0.00 0.00 0.00 95 1017.9
20260506105708 54 135 0.0 0.0 0.00 0.00 0.00 95 1017.9
20260506105205 54 135 0.0 0.0 0.00 0.00 0.00 95 1017.9
20260506104704 54 135 0.0 0.0 0.00 0.00 0.00 94 1017.9
20260506104201 55 135 0.0 0.0 0.00 0.00 0.00 95 1017.9
20260506103658 55 135 0.0 0.0 0.00 0.00 0.00 95 1017.9
20260506103155 55 135 0.0 0.0 0.00 0.00 0.00 95 1017.9
20260506102652 54 135 0.0 0.0 0.00 0.00 0.00 95 1017.9
20260506102144 54 135 0.0 0.0 0.00 0.00 0.00 95 1017.9
20260506101641 55 135 0.0 0.0 0.00 0.00 0.00 95 1017.9
20260506101138 55 135 0.0 0.0 0.00 0.00 0.00 95 1017.9
20260506100636 55 135 0.0 0.0 0.00 0.00 0.00 95 1017.9
20260506100134 55 135 0.0 0.0 0.00 0.00 0.00 95 1017.9
20260506095632 55 135 0.0 0.0 0.00 0.00 0.00 95 1017.9
20260506095129 54 135 0.0 0.0 0.00 0.00 0.00 94 1017.9
20260506094626 55 135 0.0 0.0 0.00 0.00 0.00 93 1017.9
20260506094124 55 135 0.0 0.0 0.00 0.00 0.00 94 1017.9
20260506093622 56 135 0.0 0.0 0.00 0.00 0.00 93 1017.9
20260506093119 56 135 0.0 0.0 0.00 0.00 0.00 93 1017.9
20260506092617 56 135 0.0 0.0 0.00 0.00 0.00 93 1017.9
20260506092114 56 135 0.0 0.0 0.00 0.00 0.00 93 1018.3
20260506091612 56 135 0.0 0.0 0.00 0.00 0.00 92 1018.3
20260506091109 56 136 0.0 0.0 0.00 0.00 0.00 92 1018.3
20260506090607 57 136 0.0 0.0 0.00 0.00 0.00 92 1018.3
20260506085600 56 135 0.0 0.0 0.00 0.00 0.00 92 1018.3
20260506085056 56 135 0.0 0.0 0.00 0.00 0.00 92 1018.3
20260506084553 56 136 0.0 0.0 0.00 0.00 0.00 91 1018.3
20260506084049 56 136 0.0 0.0 0.00 0.00 0.00 91 1018.3
20260506083547 57 136 0.0 0.0 0.00 0.00 0.00 91 1018.3
20260506083044 57 136 0.0 0.0 0.00 0.00 0.00 92 1018.3
20260506082540 56 136 0.0 0.0 0.00 0.00 0.00 91 1018.3
20260506082036 57 136 0.0 0.0 0.00 0.00 0.00 91 1018.3
20260506081535 57 136 0.0 0.0 0.00 0.00 0.00 92 1018.3
20260506081032 57 136 0.0 0.0 0.00 0.00 0.00 92 1018.3
20260506080529 57 136 0.0 0.0 0.00 0.00 0.00 92 1018.3
20260506073513 57 136 0.0 0.0 0.00 0.00 0.00 91 1018.6
20260506073010 57 136 0.0 0.0 0.00 0.00 0.00 91 1018.3
20260506072507 58 136 0.0 0.0 0.00 0.00 0.00 91 1018.3
20260506072005 58 136 0.0 0.0 0.00 0.00 0.00 90 1018.3
20260506071502 58 137 0.0 0.0 0.00 0.00 0.00 90 1018.3
20260506070959 58 137 0.0 0.0 0.00 0.00 0.00 89 1017.9
20260506070456 59 137 0.0 0.0 0.00 0.00 0.00 89 1018.3
20260506062434 59 124 0.0 0.0 0.00 0.00 0.00 87 1018.3
20260506061929 59 117 0.0 0.0 0.00 0.00 0.00 87 1017.9
20260506061426 59 118 0.0 0.0 0.00 0.00 0.00 87 1017.9
20260506060924 59 119 0.0 0.0 0.00 0.00 0.00 87 1017.9
20260506060422 59 120 0.0 0.0 0.00 0.00 0.00 87 1017.9
20260506051354 60 104 0.0 0.0 0.00 0.00 0.00 81 1017.6
20260506050851 59 56 0.0 0.0 0.00 0.00 0.00 82 1017.3
20260506050349 59 55 0.0 0.0 0.00 0.00 0.00 84 1017.3
20260506044839 59 291 0.0 0.0 0.00 0.00 0.00 87 1016.9
20260506044337 59 290 0.0 0.0 0.00 0.00 0.00 87 1017.3
20260506043834 60 290 0.0 0.0 0.00 0.00 0.00 86 1017.3
20260506043331 60 289 0.0 0.0 0.00 0.00 0.00 86 1017.3
20260506042829 60 287 0.0 0.0 0.00 0.00 0.00 86 1016.6
20260506042328 60 278 0.0 0.0 0.00 0.00 0.00 86 1016.9
20260506041827 60 286 0.0 0.0 0.00 0.00 0.00 86 1016.9
20260506041323 60 282 0.0 0.0 0.00 0.00 0.00 86 1016.9
20260506040820 60 281 0.0 0.0 0.00 0.00 0.00 86 1016.6
20260506040317 60 267 0.0 0.0 0.00 0.00 0.00 86 1016.6
20260506035814 60 261 0.0 0.0 0.00 0.00 0.00 86 1016.6
20260506035311 60 241 0.0 0.0 0.00 0.00 0.00 86 1016.6
20260506034809 60 262 0.0 0.0 0.00 0.00 0.00 86 1016.6
20260506034305 60 264 0.0 0.0 0.00 0.00 0.00 86 1016.6
20260506033802 60 241 0.0 0.0 0.00 0.00 0.00 86 1016.2
20260506033259 60 276 0.0 0.0 0.00 0.00 0.00 86 1016.2
20260506032756 60 256 0.0 0.0 0.00 0.00 0.00 86 1016.2
20260506032253 60 256 0.0 0.0 0.00 0.00 0.00 86 1016.2
20260506031749 61 235 0.0 0.0 0.00 0.00 0.00 86 1016.2
20260506031247 61 229 0.0 0.0 0.00 0.00 0.00 85 1016.2
20260506030745 61 201 0.0 0.0 0.00 0.00 0.00 85 1015.9
20260506030243 61 204 0.0 0.0 0.00 0.00 0.00 85 1015.9
20260506025739 61 168 0.0 0.0 0.00 0.00 0.00 84 1015.9
20260506025236 61 167 0.0 0.0 0.00 0.00 0.00 84 1015.6
20260506024733 61 224 0.0 0.0 0.00 0.00 0.00 84 1015.6
20260506024229 61 215 0.0 0.0 0.00 0.00 0.00 83 1015.9
20260506023725 62 219 0.0 0.0 0.00 0.00 0.00 81 1015.6
20260506023223 62 241 0.0 0.0 0.00 0.00 0.00 80 1015.6
20260506022719 62 232 0.0 0.0 0.00 0.00 0.00 80 1015.6
20260506022217 62 228 0.0 0.0 0.00 0.00 0.00 80 1015.6
20260506021715 63 252 0.0 0.0 0.00 0.00 0.00 79 1015.6
20260506021212 64 234 0.0 0.0 0.00 0.00 0.00 77 1015.6
20260506020708 64 170 3.5 5.2 0.00 0.00 0.00 75 1015.2
20260506020206 64 195 4.3 5.2 0.00 0.00 0.00 73 1015.6
20260506015704 65 180 0.0 0.0 0.00 0.00 0.00 69 1015.2
20260506015201 65 203 0.0 0.0 0.00 0.00 0.00 66 1015.6
20260506014658 65 243 0.0 0.0 0.00 0.00 0.00 64 1015.2
20260506014154 65 212 0.0 0.0 0.00 0.00 0.00 63 1014.9
20260506013652 64 234 0.0 0.0 0.00 0.00 0.00 63 1015.2
20260506013149 64 217 0.0 0.0 0.00 0.00 0.00 65 1015.2
20260506012645 64 167 0.0 0.0 0.00 0.00 0.00 63 1015.2
20260506012142 64 241 0.0 0.0 0.00 0.00 0.00 62 1014.9
20260506011639 65 226 0.0 0.0 0.00 0.00 0.00 62 1014.9
20260506011135 65 187 0.0 0.0 0.00 0.00 0.00 60 1015.2
20260506010634 66 167 0.0 0.0 0.00 0.00 0.00 63 1015.2
20260506010131 66 189 0.0 0.0 0.00 0.00 0.00 63 1015.2
20260506005628 66 182 0.0 0.0 0.00 0.00 0.00 63 1015.2
20260506005124 66 160 0.0 0.0 0.00 0.00 0.00 70 1015.2
20260506004621 65 226 0.0 0.0 0.00 0.00 0.00 71 1015.2
20260506004118 65 188 0.0 0.0 0.00 0.00 0.00 71 1014.9
20260506003614 65 261 4.3 9.6 0.00 0.00 0.00 70 1015.2
20260506003110 64 221 5.2 7.8 0.00 0.00 0.00 72 1015.2
20260506002607 65 177 3.5 5.2 0.00 0.00 0.00 73 1015.2
20260506002103 66 247 0.0 0.0 0.00 0.00 0.00 73 1015.2
20260506001559 65 193 0.0 0.0 0.00 0.00 0.00 73 1015.2
20260506001056 66 243 3.5 4.3 0.00 0.00 0.00 72 1015.2
20260506000554 65 216 3.5 4.3 0.00 0.00 0.00 72 1015.2
20260506000051 64 197 0.0 0.0 0.00 0.00 0.00 73 1014.9
20260505235549 64 177 6.1 7.0 0.00 0.00 0.00 75 1015.2
20260505235046 64 237 7.0 8.7 0.00 0.00 0.00 72 1015.2
20260505234543 64 189 2.6 6.1 0.00 0.00 0.00 72 1015.2
20260505234039 66 223 6.1 8.7 0.00 0.00 0.00 69 1015.2
20260505233537 66 173 6.1 6.1 0.00 0.00 0.00 71 1015.2
20260505233034 66 245 5.2 7.8 0.00 0.00 0.00 71 1015.6
20260505232532 66 182 3.5 7.8 0.00 0.00 0.00 69 1015.2
20260505232029 67 182 5.2 6.1 0.00 0.00 0.00 66 1015.6
20260505231526 67 176 4.3 5.2 0.00 0.00 0.00 64 1014.9
20260505231025 67 228 4.3 5.2 0.00 0.00 0.00 66 1014.9
20260505230522 66 229 7.8 9.6 0.00 0.00 0.00 65 1015.2
20260505230018 66 223 7.0 12.2 0.00 0.00 0.00 63 1015.2
20260505225515 66 218 3.5 7.0 0.00 0.00 0.00 64 1015.2
20260505225011 66 193 3.5 7.0 0.00 0.00 0.00 61 1015.6
20260505224508 66 266 7.0 8.7 0.00 0.00 0.00 60 1015.2
20260505224005 67 192 6.1 7.0 0.00 0.00 0.00 57 1015.2
20260505223502 66 190 2.6 4.3 0.00 0.00 0.00 60 1015.2
20260505222958 67 186 3.5 5.2 0.00 0.00 0.00 57 1015.6
20260505222454 67 252 0.0 0.0 0.00 0.00 0.00 56 1015.6
20260505221950 67 235 4.3 6.1 0.00 0.00 0.00 56 1015.6
20260505221448 67 243 7.0 7.8 0.00 0.00 0.00 58 1015.6
20260505220945 67 193 4.3 5.2 0.00 0.00 0.00 56 1015.6
20260505220442 67 164 3.5 6.1 0.00 0.00 0.00 55 1015.6
20260505215940 66 241 7.8 8.7 0.00 0.00 0.00 57 1015.6
20260505215438 66 236 3.5 4.3 0.00 0.00 0.00 61 1015.6
20260505214935 66 204 4.3 6.1 0.00 0.00 0.00 64 1015.6
20260505214433 66 226 6.1 7.8 0.00 0.00 0.00 64 1015.6
20260505213930 66 209 6.1 7.8 0.00 0.00 0.00 66 1015.6
20260505213427 67 183 2.6 4.3 0.00 0.00 0.00 65 1015.9
20260505212923 66 250 7.0 8.7 0.00 0.00 0.00 64 1015.6
20260505212420 67 258 6.1 7.8 0.00 0.00 0.00 65 1015.9
20260505211917 67 162 6.1 7.8 0.00 0.00 0.00 64 1015.9
20260505211415 66 266 2.6 7.8 0.00 0.00 0.00 63 1015.9
20260505210910 66 236 7.0 7.8 0.00 0.00 0.00 62 1015.9
20260505210408 67 207 7.0 7.8 0.00 0.00 0.00 62 1015.9
20260505205905 66 203 6.1 7.0 0.00 0.00 0.00 63 1015.9
20260505205403 66 227 4.3 5.2 0.00 0.00 0.00 61 1015.9
20260505204900 66 217 8.7 8.7 0.00 0.00 0.00 65 1015.9
20260505204357 67 198 7.0 9.6 0.00 0.00 0.00 62 1015.9
20260505203855 67 238 4.3 6.1 0.00 0.00 0.00 60 1015.9
20260505203351 66 256 5.2 7.8 0.00 0.00 0.00 64 1015.9
20260505202847 66 240 6.1 8.7 0.00 0.00 0.00 61 1015.6
20260505202343 66 239 8.7 12.2 0.00 0.00 0.00 59 1015.9
20260505201840 66 237 5.2 7.0 0.00 0.00 0.00 62 1015.6